This is the latest recevied weather packets stored in our database for station/object OK1FET-5. If no packets are shown the sender has not sent any weather packets the latest 10 day(s).
| Time | Temp. | Humidity | Pressure | Rain* | Wind** | Luminosity | Snow |
|---|---|---|---|---|---|---|---|
| 1788213730 | 17.22° C | 65% | 1018.5 hPa | - | - | - | - |
| 1788213134 | 17.78° C | 63% | 1018.3 hPa | - | - | - | - |
| 1788212538 | 17.78° C | 62% | 1018.2 hPa | - | - | - | - |
| 1788211943 | 17.78° C | 62% | 1018 hPa | - | - | - | - |
| 1788211347 | 18.33° C | 62% | 1018 hPa | - | - | - | - |
| 1788210751 | 18.33° C | 62% | 1017.8 hPa | - | - | - | - |
| 1788210155 | 17.78° C | 63% | 1017.9 hPa | - | - | - | - |
| 1788209560 | 18.33° C | 62% | 1017.9 hPa | - | - | - | - |
| 1788208964 | 18.33° C | 62% | 1017.8 hPa | - | - | - | - |
| 1788208368 | 18.33° C | 61% | 1017.6 hPa | - | - | - | - |
| 1788207772 | 18.33° C | 61% | 1017.5 hPa | - | - | - | - |
| 1788207176 | 18.33° C | 62% | 1017.4 hPa | - | - | - | - |
| 1788206581 | 17.78° C | 63% | 1017.4 hPa | - | - | - | - |
| 1788205985 | 17.78° C | 64% | 1017.4 hPa | - | - | - | - |
| 1788205389 | 17.22° C | 64% | 1017.3 hPa | - | - | - | - |
| 1788204793 | 17.22° C | 63% | 1017.4 hPa | - | - | - | - |
| 1788204198 | 17.78° C | 61% | 1017.3 hPa | - | - | - | - |
| 1788203602 | 18.33° C | 60% | 1017.3 hPa | - | - | - | - |
| 1788203006 | 18.33° C | 59% | 1017.1 hPa | - | - | - | - |
| 1788202410 | 18.89° C | 58% | 1017 hPa | - | - | - | - |
| 1788201815 | 19.44° C | 57% | 1016.8 hPa | - | - | - | - |
| 1788201219 | 19.44° C | 57% | 1016.8 hPa | - | - | - | - |
| 1788200623 | 19.44° C | 57% | 1016.7 hPa | - | - | - | - |
| 1788200027 | 19.44° C | 57% | 1016.6 hPa | - | - | - | - |
| 1788199432 | 20° C | 56% | 1016.4 hPa | - | - | - | - |
* Rain since midnight (hover to see other rain measurements)
** Current wind speed in m/s (hover to see current wind gust speed)